2022-087A (53299 NORAD) Tracking and Keplerian Element Data

This shows tracking and keplerian element data for the satellite.

Feedback or suggestion? Click here.




ElementValue
Catalog53299
Name2022-087A
Epoch Orbit943
Epoch Day270.19482152
Epoch Year2022
RAAN343.5911
Inclination97.4002
Eccentricity0.0016787
Argument of Perigee69.7262
Mean Anonmoly14.6337
Mean Motion15.21576383
Decay Rate5.077E-05
L11 53299U 22087A 22270.19482152 .00005077 00000+0 22740-3 0 9998
L22 53299 97.4002 343.5911 0016787 69.7262 14.6337 15.21576383 9430

Live tracking and technical data element details for 2022-087A (NORAD 53299). 2022-087A can be tracked NOW for your location showing map with azimuth and elevation plus other details from your city location.

Track the satellite on the map from your city or location and see movement details for azimuth, elevation, latitude, longitude, range, height, and movement on the map or in text.







IsCatalogInMostPopularTable: catalog: 53299, numindb: 4
Update: records affected: 1



GetName: 53299 2022-087A

Hit Count: updated at: Fri, 30 Sep 2022 02:33:11 GMT